Location: ???????
(52.3000°N, 54.4667°E)
Time: 22:50:40
(UTC+00:00)

STARLINK-1088 - Pass Details

Date: 24 January 2020
Orbit: 345 x 354 km, 53.0° (Epoch: 17 February)

Event Time Altitude Azimuth Distance (km) Brightness Sun altitude
Rises 14:07:06 0° 263° (W) 2,172 8.6 -11.1°
Reaches altitude 10° 14:09:07 10° 265° (W) 1,330 7.0 -11.4°
Maximum altitude 14:12:05 81° 351° (N) 366 2.7 -11.8°
Enters shadow 14:13:48 23° 78° (ENE) 823 3.9 -12.1°
